GW0531 Weather Reports


Display with metric or nautical units.
time (UTC)temp
F
wind
direction
speed
MPH
gust
MPH
rain 1hr
in
rain 24hr
in
rain mn
in
humidity
%
barometer
mb
20260505172818 79 117 3.0 4.0 0.00 0.00 0.00 48 1018.0
20260505172316 79 159 5.0 7.0 0.00 0.00 0.00 47 1017.9
20260505171815 79 339 4.0 4.0 0.00 0.00 0.00 46 1018.4
20260505171313 80 251 3.0 6.0 0.00 0.00 0.00 46 1018.5
20260505170808 80 248 0.0 5.0 0.00 0.00 0.00 47 1018.5
20260505170306 80 31 2.0 6.0 0.00 0.00 0.00 46 1018.5
20260505165801 79 136 4.0 9.0 0.00 0.00 0.00 48 1018.6
20260505165257 78 70 1.0 5.0 0.00 0.00 0.00 49 1018.6
20260505164753 78 201 4.0 7.0 0.00 0.00 0.00 49 1018.5
20260505164250 80 207 9.0 11.0 0.00 0.00 0.00 46 1019.1
20260505163748 81 164 1.0 7.0 0.00 0.00 0.00 47 1018.9
20260505163247 80 204 3.0 5.0 0.00 0.00 0.00 48 1018.6
20260505162744 79 315 1.0 4.0 0.00 0.00 0.00 49 1018.9
20260505162241 78 14 2.0 5.0 0.00 0.00 0.00 49 1018.9
20260505161737 78 176 2.0 3.0 0.00 0.00 0.00 49 1019.0
20260505161235 79 7 3.0 9.0 0.00 0.00 0.00 48 1018.9
20260505160732 78 127 1.0 4.0 0.00 0.00 0.00 49 1019.2
20260505160230 78 213 3.0 6.0 0.00 0.00 0.00 51 1019.2
20260505153209 78 147 2.0 3.0 0.00 0.00 0.00 55 1019.2
20260505152706 77 176 3.0 4.0 0.00 0.00 0.00 56 1019.2
20260505152202 77 113 3.0 6.0 0.00 0.00 0.00 54 1019.1
20260505151657 77 11 2.0 3.0 0.00 0.00 0.00 54 1019.1
20260505151155 76 36 1.0 5.0 0.00 0.00 0.00 56 1019.2
20260505150651 77 248 0.0 3.0 0.00 0.00 0.00 55 1019.1
20260505150148 77 235 3.0 5.0 0.00 0.00 0.00 54 1019.3
20260505140616 73 290 2.0 4.0 0.00 0.00 0.00 60 1019.0
20260505140114 73 296 1.0 4.0 0.00 0.00 0.00 62 1019.0
20260505125030 65 86 1.0 3.0 0.00 0.00 0.00 79 1019.0
20260505124526 65 141 0.0 2.0 0.00 0.00 0.00 80 1019.0
20260505124023 64 55 0.0 1.0 0.00 0.00 0.00 81 1019.1
20260505123519 63 322 0.0 0.0 0.00 0.00 0.00 85 1019.2
20260505123015 62 98 0.0 1.0 0.00 0.00 0.00 89 1019.0
20260505122513 62 347 0.0 0.0 0.00 0.00 0.00 93 1018.9
20260505122010 60 67 0.0 1.0 0.00 0.00 0.00 95 1019.0
20260505121506 59 50 0.0 0.0 0.00 0.00 0.00 96 1019.0
20260505121003 59 89 0.0 0.0 0.00 0.00 0.00 97 1019.0
20260505120459 57 129 0.0 0.0 0.00 0.00 0.00 97 1018.9
20260505115958 57 135 0.0 0.0 0.00 0.00 0.00 97 1018.9
20260505115454 56 103 0.0 0.0 0.00 0.00 0.00 97 1018.9
20260505114953 55 103 0.0 0.0 0.00 0.00 0.00 97 1018.8
20260505114449 55 30 0.0 0.0 0.00 0.00 0.00 97 1018.8
20260505113946 55 44 0.0 0.0 0.00 0.00 0.00 97 1018.7
20260505113442 54 44 0.0 0.0 0.00 0.00 0.00 97 1018.8
20260505112937 53 50 0.0 1.0 0.00 0.00 0.00 97 1018.6
20260505112435 53 315 0.0 0.0 0.00 0.00 0.00 97 1018.7
20260505111932 53 25 0.0 0.0 0.00 0.00 0.00 97 1018.7
20260505111426 52 25 0.0 0.0 0.00 0.00 0.00 97 1018.5
20260505110923 52 25 0.0 1.0 0.00 0.00 0.00 97 1018.4
20260505110420 52 352 0.0 0.0 0.00 0.00 0.00 97 1018.5
20260505101850 52 224 0.0 0.0 0.00 0.00 0.00 96 1017.8
20260505101345 52 157 0.0 0.0 0.00 0.00 0.00 96 1017.8
20260505100841 52 124 0.0 0.0 0.00 0.00 0.00 96 1017.8
20260505100338 52 11 0.0 0.0 0.00 0.00 0.00 96 1017.8
20260505095834 52 49 0.0 0.0 0.00 0.00 0.00 96 1017.7
20260505095332 52 89 0.0 0.0 0.00 0.00 0.00 96 1017.7
20260505094827 52 113 0.0 0.0 0.00 0.00 0.00 96 1017.5
20260505094325 52 113 0.0 0.0 0.00 0.00 0.00 96 1017.6
20260505093820 53 113 0.0 0.0 0.00 0.00 0.00 96 1017.6
20260505093318 53 92 0.0 2.0 0.00 0.00 0.00 96 1017.6
20260505092814 52 78 1.0 1.0 0.00 0.00 0.00 96 1017.5
20260505092313 53 113 0.0 0.0 0.00 0.00 0.00 96 1017.4
20260505091810 53 103 0.0 0.0 0.00 0.00 0.00 96 1017.4
20260505091308 53 102 0.0 1.0 0.00 0.00 0.00 96 1017.5
20260505090806 53 113 0.0 0.0 0.00 0.00 0.00 96 1017.6
20260505090304 53 113 0.0 0.0 0.00 0.00 0.00 96 1017.5
20260505085800 53 333 0.0 0.0 0.00 0.00 0.00 96 1017.4
20260505085258 53 333 0.0 0.0 0.00 0.00 0.00 96 1017.3
20260505084755 53 333 0.0 0.0 0.00 0.00 0.00 95 1017.5
20260505084249 53 333 0.0 0.0 0.00 0.00 0.00 95 1017.4
20260505083745 53 336 1.0 1.0 0.00 0.00 0.00 95 1017.2
20260505083242 53 13 0.0 0.0 0.00 0.00 0.00 95 1017.2
20260505082738 53 32 0.0 0.0 0.00 0.00 0.00 95 1017.1
20260505082235 53 135 0.0 0.0 0.00 0.00 0.00 95 1017.2
20260505081731 53 13 0.0 0.0 0.00 0.00 0.00 95 1017.1
20260505081229 53 13 0.0 0.0 0.00 0.00 0.00 95 1017.1
20260505080726 53 29 0.0 1.0 0.00 0.00 0.00 95 1017.0
20260505080221 53 309 0.0 0.0 0.00 0.00 0.00 95 1017.1
20260505075717 53 315 0.0 0.0 0.00 0.00 0.00 95 1017.1
20260505075214 53 73 0.0 1.0 0.00 0.00 0.00 94 1017.0
20260505074712 53 63 0.0 1.0 0.00 0.00 0.00 94 1016.9
20260505074208 53 110 0.0 1.0 0.00 0.00 0.00 94 1016.9
20260505073706 54 345 0.0 0.0 0.00 0.00 0.00 94 1017.2
20260505073204 54 199 0.0 0.0 0.00 0.00 0.00 94 1017.1
20260505072659 54 124 0.0 0.0 0.00 0.00 0.00 94 1016.9
20260505072156 54 55 0.0 0.0 0.00 0.00 0.00 94 1017.0
20260505071651 54 55 0.0 0.0 0.00 0.00 0.00 93 1017.0
20260505071150 54 66 0.0 0.0 0.00 0.00 0.00 94 1017.0
20260505070646 54 66 0.0 1.0 0.00 0.00 0.00 94 1017.0
20260505070143 54 49 1.0 1.0 0.00 0.00 0.00 93 1017.0
20260505065639 54 63 0.0 1.0 0.00 0.00 0.00 93 1017.1
20260505065136 54 38 1.0 1.0 0.00 0.00 0.00 93 1017.1
20260505064632 54 136 1.0 1.0 0.00 0.00 0.00 93 1017.1
20260505064131 54 157 0.0 0.0 0.00 0.00 0.00 93 1017.1
20260505063628 54 77 0.0 0.0 0.00 0.00 0.00 92 1017.1
20260505063124 54 315 0.0 0.0 0.00 0.00 0.00 92 1017.2
20260505062620 54 44 0.0 0.0 0.00 0.00 0.00 92 1017.4
20260505062118 54 50 0.0 0.0 0.00 0.00 0.00 92 1017.4
20260505061615 54 110 0.0 0.0 0.00 0.00 0.00 92 1017.8
20260505061113 54 66 0.0 0.0 0.00 0.00 0.00 92 1017.6
20260505060610 54 77 0.0 0.0 0.00 0.00 0.00 91 1017.9
20260505060107 54 50 0.0 1.0 0.00 0.00 0.00 91 1017.8
20260505055602 54 130 0.0 0.0 0.00 0.00 0.00 91 1017.8
20260505055059 54 60 0.0 0.0 0.00 0.00 0.00 91 1017.9
20260505054556 54 50 0.0 0.0 0.00 0.00 0.00 91 1017.8
20260505054054 55 50 0.0 1.0 0.00 0.00 0.00 90 1018.0
20260505053551 54 50 1.0 1.0 0.00 0.00 0.00 90 1017.9
20260505053048 55 54 0.0 1.0 0.00 0.00 0.00 90 1018.0
20260505052544 55 50 0.0 0.0 0.00 0.00 0.00 90 1018.2
20260505052042 55 111 0.0 0.0 0.00 0.00 0.00 89 1018.1
20260505051539 55 141 0.0 0.0 0.00 0.00 0.00 89 1018.2
20260505051037 55 19 0.0 0.0 0.00 0.00 0.00 89 1018.3
20260505050535 55 19 0.0 0.0 0.00 0.00 0.00 88 1018.2
20260505041502 56 11 0.0 0.0 0.00 0.00 0.00 84 1018.4
20260505041000 56 299 0.0 0.0 0.00 0.00 0.00 84 1018.3
20260505040457 57 119 0.0 1.0 0.00 0.00 0.00 83 1018.3
20260505035954 57 122 0.0 1.0 0.00 0.00 0.00 83 1018.2
20260505035450 57 129 0.0 0.0 0.00 0.00 0.00 83 1018.4
20260505034947 57 356 0.0 1.0 0.00 0.00 0.00 82 1018.3
20260505034443 57 89 0.0 0.0 0.00 0.00 0.00 82 1018.3
20260505033941 57 150 0.0 0.0 0.00 0.00 0.00 81 1018.4
20260505033437 57 186 0.0 0.0 0.00 0.00 0.00 81 1018.5
20260505032936 58 124 0.0 0.0 0.00 0.00 0.00 80 1018.1
20260505032433 58 129 0.0 1.0 0.00 0.00 0.00 80 1018.4
20260505031929 58 50 0.0 0.0 0.00 0.00 0.00 79 1018.3
20260505031426 58 287 0.0 0.0 0.00 0.00 0.00 78 1018.2
20260505030923 58 37 1.0 1.0 0.00 0.00 0.00 78 1018.4
20260505030419 59 129 0.0 0.0 0.00 0.00 0.00 77 1018.4
20260505025914 59 309 0.0 0.0 0.00 0.00 0.00 77 1018.4
20260505025412 59 124 0.0 0.0 0.00 0.00 0.00 76 1018.3
20260505024911 59 129 0.0 0.0 0.00 0.00 0.00 75 1018.3
20260505024408 60 113 0.0 1.0 0.00 0.00 0.00 75 1018.4
20260505023905 60 98 1.0 1.0 0.00 0.00 0.00 75 1018.2
20260505023402 60 89 0.0 1.0 0.00 0.00 0.00 74 1018.2
20260505022859 60 89 0.0 2.0 0.00 0.00 0.00 73 1018.1
20260505022356 60 89 0.0 1.0 0.00 0.00 0.00 73 1018.1
20260505021853 60 80 0.0 0.0 0.00 0.00 0.00 72 1018.2
20260505021349 60 124 0.0 1.0 0.00 0.00 0.00 71 1018.1
20260505020845 61 142 0.0 0.0 0.00 0.00 0.00 70 1018.2
20260505020341 61 129 0.0 0.0 0.00 0.00 0.00 69 1018.2
20260505015838 62 76 0.0 0.0 0.00 0.00 0.00 69 1018.1
20260505015335 62 79 0.0 1.0 0.00 0.00 0.00 68 1018.1
20260505014833 62 110 0.0 0.0 0.00 0.00 0.00 68 1018.2
20260505014329 62 89 0.0 0.0 0.00 0.00 0.00 68 1018.0
20260505013826 62 154 0.0 0.0 0.00 0.00 0.00 67 1018.1
20260505013323 62 129 0.0 1.0 0.00 0.00 0.00 66 1018.1
20260505012822 62 124 0.0 1.0 0.00 0.00 0.00 65 1018.1
20260505012319 63 133 1.0 1.0 0.00 0.00 0.00 64 1018.2
20260505011815 63 142 0.0 1.0 0.00 0.00 0.00 64 1017.9
20260505011312 63 173 0.0 1.0 0.00 0.00 0.00 63 1017.9
20260505010808 64 133 0.0 0.0 0.00 0.00 0.00 62 1017.9
20260505010304 64 135 0.0 1.0 0.00 0.00 0.00 61 1017.8
20260505005800 64 93 1.0 2.0 0.00 0.00 0.00 60 1017.8
20260505005257 64 55 0.0 1.0 0.00 0.00 0.00 60 1017.7
20260505004755 65 44 0.0 0.0 0.00 0.00 0.00 60 1018.0
20260505004250 65 142 0.0 0.0 0.00 0.00 0.00 59 1017.8
20260505003748 65 129 0.0 1.0 0.00 0.00 0.00 58 1017.7
20260505003246 66 140 0.0 0.0 0.00 0.00 0.00 57 1017.5
20260505002742 66 147 0.0 0.0 0.00 0.00 0.00 57 1017.8
20260505002239 67 121 0.0 1.0 0.00 0.00 0.00 55 1017.7
20260505001737 67 147 0.0 2.0 0.00 0.00 0.00 55 1017.7
20260505001234 67 147 1.0 1.0 0.00 0.00 0.00 54 1017.6
20260505000731 68 129 0.0 2.0 0.00 0.00 0.00 53 1017.7
20260505000229 68 124 1.0 2.0 0.00 0.00 0.00 52 1017.5
20260504235725 69 147 0.0 2.0 0.00 0.00 0.00 51 1017.7
20260504235221 69 128 0.0 2.0 0.00 0.00 0.00 51 1017.7
20260504234719 69 155 1.0 2.0 0.00 0.00 0.00 51 1017.5
20260504234216 69 145 1.0 2.0 0.00 0.00 0.00 50 1017.5
20260504233712 70 170 0.0 3.0 0.00 0.00 0.00 49 1017.3
20260504233208 70 123 2.0 3.0 0.00 0.00 0.00 49 1017.4
20260504232705 70 89 0.0 2.0 0.00 0.00 0.00 50 1017.4
20260504232202 71 129 2.0 3.0 0.00 0.00 0.00 49 1017.2
20260504231659 71 126 2.0 3.0 0.00 0.00 0.00 49 1017.3
20260504231155 71 291 1.0 4.0 0.00 0.00 0.00 49 1017.5
20260504230651 72 148 2.0 2.0 0.00 0.00 0.00 48 1017.3
20260504230150 73 202 1.0 4.0 0.00 0.00 0.00 48 1017.4
20260504225648 73 94 0.0 3.0 0.00 0.00 0.00 48 1017.3
20260504225144 73 154 4.0 6.0 0.00 0.00 0.00 47 1017.1
20260504224641 73 105 3.0 4.0 0.00 0.00 0.00 47 1017.2
20260504224138 73 148 3.0 5.0 0.00 0.00 0.00 47 1017.3
20260504223635 73 219 3.0 4.0 0.00 0.00 0.00 47 1017.2
20260504223131 74 139 7.0 9.0 0.00 0.00 0.00 45 1017.2
20260504222628 74 127 3.0 4.0 0.00 0.00 0.00 46 1017.3
20260504222125 74 138 1.0 4.0 0.00 0.00 0.00 47 1017.3
20260504221622 74 163 1.0 5.0 0.00 0.00 0.00 46 1017.4
20260504221119 74 150 1.0 7.0 0.00 0.00 0.00 45 1017.3
20260504220615 75 164 3.0 6.0 0.00 0.00 0.00 45 1017.2
20260504220113 75 177 2.0 5.0 0.00 0.00 0.00 46 1017.2
20260504215609 75 133 6.0 6.0 0.00 0.00 0.00 45 1017.3
20260504215107 75 138 6.0 7.0 0.00 0.00 0.00 44 1017.3
20260504214602 75 175 4.0 6.0 0.00 0.00 0.00 45 1016.9
20260504214059 75 162 2.0 9.0 0.00 0.00 0.00 45 1017.1
20260504213555 75 193 2.0 8.0 0.00 0.00 0.00 44 1017.2
20260504213052 75 193 2.0 8.0 0.00 0.00 0.00 44 1017.2
20260504212548 75 316 3.0 5.0 0.00 0.00 0.00 45 1017.2
20260504212046 75 198 2.0 6.0 0.00 0.00 0.00 44 1017.1
20260504211543 75 7 1.0 6.0 0.00 0.00 0.00 45 1017.0
20260504211039 75 167 1.0 9.0 0.00 0.00 0.00 43 1017.1
20260504210536 76 126 3.0 9.0 0.00 0.00 0.00 43 1017.2
20260504210033 77 197 4.0 9.0 0.00 0.00 0.00 42 1016.9
20260504205531 76 145 6.0 8.0 0.00 0.00 0.00 42 1017.3
20260504205029 77 175 5.0 5.0 0.00 0.00 0.00 44 1016.9
20260504204527 77 203 4.0 5.0 0.00 0.00 0.00 42 1017.0
20260504204026 77 145 5.0 7.0 0.00 0.00 0.00 42 1017.0
20260504203523 78 162 2.0 5.0 0.00 0.00 0.00 42 1017.2
20260504203020 78 73 2.0 8.0 0.00 0.00 0.00 41 1017.1
20260504202516 78 222 3.0 10.0 0.00 0.00 0.00 41 1017.1
20260504202013 78 129 2.0 5.0 0.00 0.00 0.00 40 1017.0
20260504201510 78 133 2.0 8.0 0.00 0.00 0.00 42 1017.3
20260504201008 78 71 4.0 9.0 0.00 0.00 0.00 40 1017.2
20260504200504 78 30 3.0 6.0 0.00 0.00 0.00 42 1017.3
20260504200000 78 341 2.0 8.0 0.00 0.00 0.00 41 1017.3
20260504195456 78 198 3.0 6.0 0.00 0.00 0.00 40 1017.2
20260504194953 79 137 4.0 11.0 0.00 0.00 0.00 40 1017.3
20260504194449 79 134 3.0 9.0 0.00 0.00 0.00 41 1017.3
20260504193945 80 210 6.0 6.0 0.00 0.00 0.00 39 1017.5
20260504193443 80 97 3.0 5.0 0.00 0.00 0.00 39 1017.5
20260504192941 80 11 4.0 6.0 0.00 0.00 0.00 36 1017.7
20260504192438 80 190 3.0 6.0 0.00 0.00 0.00 35 1017.4
20260504191937 81 109 2.0 4.0 0.00 0.00 0.00 34 1017.4
20260504191435 79 252 0.0 4.0 0.00 0.00 0.00 35 1017.5
20260504190935 80 149 3.0 9.0 0.00 0.00 0.00 36 1017.7
20260504190431 80 264 3.0 4.0 0.00 0.00 0.00 36 1017.5
20260504185928 80 218 1.0 3.0 0.00 0.00 0.00 35 1017.7
20260504185426 80 225 2.0 4.0 0.00 0.00 0.00 36 1017.8
20260504184921 79 283 2.0 6.0 0.00 0.00 0.00 37 1017.7
20260504184417 80 153 1.0 6.0 0.00 0.00 0.00 35 1017.9
20260504183913 79 248 2.0 6.0 0.00 0.00 0.00 36 1017.9
20260504183411 78 359 2.0 7.0 0.00 0.00 0.00 36 1018.0
20260504182909 80 5 2.0 4.0 0.00 0.00 0.00 34 1018.0
20260504182405 79 130 1.0 3.0 0.00 0.00 0.00 35 1017.9
20260504181902 79 181 1.0 6.0 0.00 0.00 0.00 37 1018.1
20260504181400 78 173 1.0 3.0 0.00 0.00 0.00 36 1018.2
20260504180858 79 4 2.0 9.0 0.00 0.00 0.00 35 1018.1
20260504180356 78 240 0.0 4.0 0.00 0.00 0.00 37 1018.1
20260504175854 77 232 0.0 5.0 0.00 0.00 0.00 37 1018.1
20260504175351 77 99 3.0 3.0 0.00 0.00 0.00 38 1018.1
20260504174849 78 140 2.0 5.0 0.00 0.00 0.00 36 1018.2
20260504174346 78 264 2.0 4.0 0.00 0.00 0.00 37 1018.3
20260504173843 78 304 1.0 2.0 0.00 0.00 0.00 36 1018.3
20260504173340 78 279 3.0 6.0 0.00 0.00 0.00 36 1018.3